Regional Weather Roundup
Issued by NWS Sioux Falls, SD

Home | Current Version | Previous Version | Graphics & Text | Print | Product List | Glossary Off
Versions: 1 2 3 4 5 6 7 8 9 10 11 12 13 14 15 16 17 18 19 20 21 22 23 24 25 26 27 28 29 30 31 32 33 34 35 36 37 38 39 40 41 42 43 44 45 46 47 48 49 50

000
ASUS43 KFSD 261810
RWRFSD

WEATHER ROUNDUP FOR SE SOUTH DAKOTA/SW MINNESOTA/NW IOWA
NATIONAL WEATHER SERVICE SIOUX FALLS SD
100 PM CDT THU MAR 26 2015

NOTE: "FAIR" INDICATES FEW OR NO CLOUDS BELOW 12,000 FEET WITH NO
SIGNIFICANT WEATHER AND OR OBSTRUCTIONS TO VISIBILITY.


SDZ038>040-050-052>070-261900-
SOUTHEAST SOUTH DAKOTA

CITY           SKY/WX    TMP DP  RH WIND       PRES   REMARKS
CHAMBERLAIN    LGT SNOW  32  29  87 SE5       30.17R WCI  27
6HR MIN TEMP:  18; 6HR MAX TEMP:  34;

HURON          CLOUDY    35  24  64 N6        30.19F
6HR MIN TEMP:  15; 6HR MAX TEMP:  35;

MADISON        FAIR      34  23  64 N10       30.16F WCI  26
MITCHELL       CLOUDY    38  25  59 VRB3      30.19F
6HR MIN TEMP:  20; 6HR MAX TEMP:  38;

SIOUX FALLS    CLOUDY    38  23  55 N12       30.17S
6HR MIN TEMP:  23; 6HR MAX TEMP:  40;

WINNER         SNOW      34  30  85 E12       30.11S VSB 1/2 WCI  25
YANKTON        CLOUDY    37  19  48 N7        30.20S
$$

MNZ071-072-080-081-089-090-097-098-261900-
SOUTHWEST MINNESOTA

CITY           SKY/WX    TMP DP  RH WIND       PRES   REMARKS
FAIRMONT       FAIR      36  19  51 NW16G22   30.14S
JACKSON        CLOUDY    34  23  64 N14G24    30.15S WCI  24
LUVERNE        CLOUDY    37  23  56 N9        30.17S
MARSHALL       CLOUDY    34  19  55 N16       30.19S WCI  23
6HR MIN TEMP:  25; 6HR MAX TEMP:  34;

MONTEVIDEO     PTSUNNY   34  23  64 N18G24    30.20S WCI  23
PIPESTONE      CLOUDY    34  21  60 N12       30.15F WCI  25
REDWOOD FALLS  MOSUNNY   34  22  61 N12G21    30.17S WCI  25
TRACY          PTSUNNY   33  23  66 N12       30.17F WCI  25
WINDOM         PTSUNNY   36  19  51 NW18      30.15F
WORTHINGTON    CLOUDY    34  19  55 NW15      30.17S WCI  24
$$

IAZ001>003-012>014-020>022-031-032-NEZ013-014-SDZ071-261900-
NORTHWEST IOWA

CITY           SKY/WX    TMP DP  RH WIND       PRES   REMARKS
CHEROKEE       PTSUNNY   41  24  52 NW14G21   30.16S
DENISON        PTSUNNY   43  25  49 NW13G23   30.14F
ESTHERVILLE    CLOUDY    35  24  64 N16       30.15S WCI  25
LE MARS        CLOUDY    41  23  48 NW8G15    30.18F
ORANGE CITY    CLOUDY    41  25  52 NW12G17   30.17R
SHELDON        CLOUDY    37  25  60 N15       30.15S
SIOUX CITY     PTSUNNY   45  22  40 N13       30.17F
6HR MIN TEMP:  21; 6HR MAX TEMP:  45;

SPENCER        CLOUDY    38  24  57 NW13      30.16S
6HR MIN TEMP:  24; 6HR MAX TEMP:  39;

STORM LAKE     PTSUNNY   41  23  48 NW16G23   30.15S
$$

ABBREVIATIONS USED IN REMARKS
   TC - TEMPERATURE IN CELSIUS
  WCI - WIND CHILL INDEX
   HX - HEAT INDEX
  VSB - VISIBILITY




USA.gov is the U.S. government's official web portal to all federal, state and local government web resources and services.